This is the latest recevied weather packets stored in our database for station/object XE2MDH-15. If no packets are shown the sender has not sent any weather packets the latest 10 day(s).
| Time | Temp. | Humidity | Pressure | Rain* | Wind** | Luminosity | Snow |
|---|---|---|---|---|---|---|---|
| 1788146511 | 65° F | 28% | 608 mmHg | - | - | - | - |
| 1788145611 | 65° F | 28% | 608.1 mmHg | - | - | - | - |
| 1788144710 | 64° F | 27% | 607.9 mmHg | - | - | - | - |
| 1788143810 | 63° F | 27% | 608.1 mmHg | - | - | - | - |
| 1788142910 | 64° F | 28% | 608.1 mmHg | - | - | - | - |
| 1788142010 | 66° F | 28% | 607.9 mmHg | - | - | - | - |
| 1788141110 | 67° F | 27% | 607.9 mmHg | - | - | - | - |
| 1788140210 | 69° F | 28% | 607.7 mmHg | - | - | - | - |
| 1788139313 | 69° F | 28% | 607.4 mmHg | - | - | - | - |
| 1788134812 | 75° F | 28% | 606.3 mmHg | - | - | - | - |
| 1788133912 | 77° F | 27% | 606.1 mmHg | - | - | - | - |
| 1788133012 | 80° F | 28% | 605.9 mmHg | - | - | - | - |
| 1788132111 | 83° F | 28% | 606.1 mmHg | - | - | - | - |
| 1788131211 | 83° F | 28% | 606.1 mmHg | - | - | - | - |
| 1788130311 | 81° F | 28% | 606.1 mmHg | - | - | - | - |
| 1788128511 | 81° F | 27% | 606 mmHg | - | - | - | - |
| 1788127611 | 81° F | 27% | 606.1 mmHg | - | - | - | - |
| 1788126710 | 81° F | 27% | 606.2 mmHg | - | - | - | - |
| 1788125810 | 83° F | 27% | 606.3 mmHg | - | - | - | - |
| 1788124910 | 87° F | 27% | 606.3 mmHg | - | - | - | - |
| 1788124010 | 94° F | 27% | 606.3 mmHg | - | - | - | - |
| 1788123110 | 104° F | 27% | 606.4 mmHg | - | - | - | - |
| 1788122210 | 108° F | 27% | 606.7 mmHg | - | - | - | - |
| 1788120410 | 110° F | 28% | 606.9 mmHg | - | - | - | - |
| 1788119509 | 109° F | 28% | 607.3 mmHg | - | - | - | - |
* Rain since midnight (hover to see other rain measurements)
** Current wind speed in m/s (hover to see current wind gust speed)